Weather History for Grand Rapids, MN

Change the Weather History Date:

Sunday, September 22, 2013

  Actual Average Record
Temperature  
Mean Temperature 52 °F -  
Max Temperature 64 °F 61 °F 90 °F (1936)
Min Temperature 39 °F 39 °F 23 °F (1947)
Degree Days  
Heating Degree Days 14    
Growing Degree Days 2 (Base 50)    
Moisture  
Dew Point 41 °F    
Average Humidity 71    
Maximum Humidity 87    
Minimum Humidity 49    
Precipitation  
Precipitation 0.00 in - - ()
Sea Level Pressure  
Sea Level Pressure 29.92 in    
Wind  
Wind Speed 8 mph (SE)    
Max Wind Speed 15 mph    
Max Gust Speed 24 mph    
Visibility 10 miles    
Events      
Averages and records for this station are not official NWS values.
T = Trace of Precipitation, MM = Missing Value Source: NWS Daily Summary

Daily Weather History Graph

Daily Weather History Graph

Search for Another Location

Airport:

Trip Planner

Search our weather history database for the weather conditions in past years. The results will help you decide how hot, cold, wet, or windy it might be!

Date:

Astronomy

Sep. 22, 2013 Rise Set
Actual Time 7:01 AM CDT 7:11 PM CDT
Civil Twilight 6:30 AM CDT 7:41 PM CDT
Nautical Twilight 5:54 AM CDT 8:17 PM CDT
Astronomical Twilight 5:17 AM CDT 8:54 PM CDT
Moon 8:44 PM CDT (9/22) 10:37 AM CDT (9/22)
Length of Visible Light 13h 10m
Length of Day
12h 09m
Waning Gibbous, 88% of the Moon is Illuminated
Sep 22
Waning Gibbous
Sep 26
Last Quarter
Oct 4
New
Oct 11
First Quarter
Oct 18
Full

Hourly Weather History & Observations

Time (CDT) Temp. Windchill Dew Point Humidity Pressure Visibility Wind Dir Wind Speed Gust Speed Precip Events Conditions
12:15 AM 42.8 °F 40.1 °F 37.4 °F 81% 29.97 in 10.0 mi ESE 4.6 mph - N/A   Clear
12:35 AM 42.8 °F 41.1 °F 37.4 °F 81% 29.97 in 10.0 mi ESE 3.5 mph - N/A   Clear
12:55 AM 42.8 °F 40.1 °F 37.4 °F 81% 29.97 in 10.0 mi SE 4.6 mph - N/A   Clear
1:15 AM 41.0 °F 38.0 °F 37.4 °F 87% 29.97 in 10.0 mi ESE 4.6 mph - N/A   Clear
1:35 AM 41.0 °F 38.0 °F 35.6 °F 81% 29.97 in 10.0 mi SE 4.6 mph - N/A   Clear
1:55 AM 41.0 °F 39.0 °F 35.6 °F 81% 29.97 in 10.0 mi SE 3.5 mph - N/A   Clear
2:15 AM 41.0 °F 37.1 °F 35.6 °F 81% 29.97 in 10.0 mi ESE 5.8 mph - N/A   Clear
2:35 AM 41.0 °F 38.0 °F 37.4 °F 87% 29.97 in 10.0 mi ESE 4.6 mph - N/A   Clear
2:55 AM 41.0 °F 38.0 °F 37.4 °F 87% 29.97 in 10.0 mi SE 4.6 mph - N/A   Clear
3:15 AM 41.0 °F 37.1 °F 37.4 °F 87% 29.97 in 10.0 mi ESE 5.8 mph - N/A   Clear
3:35 AM 41.0 °F 38.0 °F 37.4 °F 87% 29.97 in 10.0 mi SE 4.6 mph - N/A   Clear
3:55 AM 41.0 °F 38.0 °F 37.4 °F 87% 29.97 in 10.0 mi SE 4.6 mph - N/A   Clear
4:15 AM 41.0 °F 37.1 °F 37.4 °F 87% 29.97 in 10.0 mi SE 5.8 mph - N/A   Clear
4:35 AM 39.2 °F 35.9 °F 35.6 °F 87% 29.97 in 10.0 mi SE 4.6 mph - N/A   Clear
4:55 AM 39.2 °F 35.9 °F 35.6 °F 87% 29.96 in 10.0 mi SE 4.6 mph - N/A   Clear
5:15 AM 39.2 °F 35.0 °F 35.6 °F 87% 29.97 in 10.0 mi ESE 5.8 mph - N/A   Clear
5:35 AM 39.2 °F 34.2 °F 35.6 °F 87% 29.97 in 10.0 mi SE 6.9 mph - N/A   Clear
5:55 AM 39.2 °F 34.2 °F 35.6 °F 87% 29.97 in 10.0 mi SE 6.9 mph - N/A   Clear
6:15 AM 39.2 °F 34.2 °F 35.6 °F 87% 29.97 in 10.0 mi SE 6.9 mph - N/A   Clear
6:35 AM 39.2 °F 33.6 °F 35.6 °F 87% 29.97 in 10.0 mi SE 8.1 mph - N/A   Clear
6:55 AM 39.2 °F 33.0 °F 35.6 °F 87% 29.97 in 10.0 mi SSE 9.2 mph - N/A   Clear
7:15 AM 39.2 °F 32.5 °F 35.6 °F 87% 29.98 in 10.0 mi SE 10.4 mph - N/A   Clear
7:35 AM 39.2 °F 33.0 °F 35.6 °F 87% 29.98 in 10.0 mi SE 9.2 mph - N/A   Clear
7:55 AM 39.2 °F 33.0 °F 35.6 °F 87% 29.97 in 10.0 mi SE 9.2 mph 16.1 mph N/A   Clear
8:15 AM 41.0 °F 35.8 °F 35.6 °F 81% 29.97 in 10.0 mi SE 8.1 mph - N/A   Clear
8:35 AM 42.8 °F 37.0 °F 37.4 °F 81% 29.97 in 10.0 mi SE 10.4 mph - N/A   Clear
8:55 AM 42.8 °F 37.5 °F 37.4 °F 81% 29.97 in 10.0 mi SE 9.2 mph - N/A   Clear
9:15 AM 44.6 °F 38.8 °F 37.4 °F 76% 29.98 in 10.0 mi SE 11.5 mph 16.1 mph N/A   Clear
9:35 AM 46.4 °F 41.1 °F 39.2 °F 76% 29.97 in 10.0 mi SSE 11.5 mph - N/A   Clear
9:55 AM 46.4 °F 40.7 °F 39.2 °F 76% 29.98 in 10.0 mi SSE 12.7 mph 18.4 mph N/A   Clear
10:15 AM 48.2 °F - 41.0 °F 76% 29.98 in 10.0 mi SE 13.8 mph 17.3 mph N/A   Clear
10:35 AM 51.8 °F - 41.0 °F 67% 29.97 in 10.0 mi SSE 11.5 mph 18.4 mph N/A   Clear
10:55 AM 53.6 °F - 42.8 °F 67% 29.96 in 10.0 mi SE 11.5 mph 18.4 mph N/A   Clear
11:15 AM 53.6 °F - 42.8 °F 67% 29.96 in 10.0 mi SE 13.8 mph 20.7 mph N/A   Clear
11:35 AM 55.4 °F - 42.8 °F 63% 29.95 in 10.0 mi SSE 12.7 mph 20.7 mph N/A   Clear
11:55 AM 57.2 °F - 42.8 °F 59% 29.94 in 10.0 mi SE 9.2 mph 20.7 mph N/A   Clear
12:15 PM 57.2 °F - 42.8 °F 59% 29.94 in 10.0 mi SE 9.2 mph 18.4 mph N/A   Clear
12:35 PM 59.0 °F - 42.8 °F 55% 29.93 in 10.0 mi SE 13.8 mph 23.0 mph N/A   Clear
12:55 PM 60.8 °F - 42.8 °F 52% 29.92 in 10.0 mi SE 10.4 mph 21.9 mph N/A   Clear
1:15 PM 60.8 °F - 42.8 °F 52% 29.92 in 10.0 mi SSE 12.7 mph 18.4 mph N/A   Clear
1:35 PM 60.8 °F - 42.8 °F 52% 29.91 in 10.0 mi SE 13.8 mph 21.9 mph N/A   Clear
1:55 PM 62.6 °F - 44.6 °F 52% 29.91 in 10.0 mi SE 15.0 mph 23.0 mph N/A   Clear
2:15 PM 62.6 °F - 44.6 °F 52% 29.90 in 10.0 mi SSE 10.4 mph 18.4 mph N/A   Clear
2:35 PM 62.6 °F - 44.6 °F 52% 29.89 in 10.0 mi SE 15.0 mph 21.9 mph N/A   Clear
2:55 PM 62.6 °F - 44.6 °F 52% 29.88 in 10.0 mi SE 11.5 mph 21.9 mph N/A   Clear
3:15 PM 64.4 °F - 44.6 °F 49% 29.88 in 10.0 mi SE 12.7 mph 19.6 mph N/A   Clear
3:35 PM 64.4 °F - 44.6 °F 49% 29.88 in 10.0 mi SE 11.5 mph 21.9 mph N/A   Clear
3:55 PM 64.4 °F - 44.6 °F 49% 29.88 in 10.0 mi SE 10.4 mph 21.9 mph N/A   Clear
4:15 PM 64.4 °F - 44.6 °F 49% 29.87 in 10.0 mi SE 11.5 mph 19.6 mph N/A   Clear
4:35 PM 64.4 °F - 44.6 °F 49% 29.86 in 10.0 mi SE 11.5 mph 19.6 mph N/A   Clear
4:55 PM 62.6 °F - 44.6 °F 52% 29.86 in 10.0 mi ESE 12.7 mph 21.9 mph N/A   Clear
5:15 PM 62.6 °F - 44.6 °F 52% 29.85 in 10.0 mi SE 13.8 mph 20.7 mph N/A   Clear
5:35 PM 62.6 °F - 44.6 °F 52% 29.86 in 10.0 mi SE 12.7 mph 20.7 mph N/A   Clear
5:55 PM 62.6 °F - 44.6 °F 52% 29.86 in 10.0 mi SE 10.4 mph 21.9 mph N/A   Clear
6:15 PM 62.6 °F - 44.6 °F 52% 29.86 in 10.0 mi SE 9.2 mph 18.4 mph N/A   Clear
6:35 PM 60.8 °F - 44.6 °F 55% 29.86 in 10.0 mi SE 8.1 mph 20.7 mph N/A   Clear
6:55 PM 59.0 °F - 44.6 °F 59% 29.86 in 10.0 mi SE 10.4 mph 18.4 mph N/A   Clear
7:15 PM 57.2 °F - 44.6 °F 63% 29.86 in 10.0 mi SE 10.4 mph - N/A   Clear
7:35 PM 55.4 °F - 44.6 °F 67% 29.86 in 10.0 mi SE 10.4 mph 19.6 mph N/A   Clear
7:55 PM 55.4 °F - 44.6 °F 67% 29.87 in 10.0 mi SE 10.4 mph - N/A   Clear
8:15 PM 53.6 °F - 44.6 °F 72% 29.87 in 10.0 mi SE 12.7 mph 24.2 mph N/A   Clear
8:35 PM 53.6 °F - 44.6 °F 72% 29.87 in 10.0 mi SE 12.7 mph 18.4 mph N/A   Clear
8:55 PM 53.6 °F - 42.8 °F 67% 29.87 in 10.0 mi SE 12.7 mph 20.7 mph N/A   Clear
9:15 PM 51.8 °F - 42.8 °F 71% 29.87 in 10.0 mi SE 15.0 mph 23.0 mph N/A   Clear
9:35 PM 51.8 °F - 42.8 °F 71% 29.88 in 10.0 mi SE 12.7 mph 18.4 mph N/A   Clear
9:55 PM 51.8 °F - 42.8 °F 71% 29.88 in 10.0 mi SE 11.5 mph 18.4 mph N/A   Clear
10:15 PM 50.0 °F - 42.8 °F 76% 29.88 in 10.0 mi SE 10.4 mph 16.1 mph N/A   Clear
10:35 PM 50.0 °F - 44.6 °F 82% 29.87 in 10.0 mi SE 11.5 mph 17.3 mph N/A   Clear
10:55 PM 50.0 °F - 44.6 °F 82% 29.87 in 10.0 mi SE 10.4 mph 16.1 mph N/A   Clear
11:15 PM 48.2 °F - 44.6 °F 87% 29.87 in 10.0 mi SE 10.4 mph - N/A   Clear
11:35 PM 48.2 °F - 44.6 °F 87% 29.87 in 10.0 mi SE 8.1 mph - N/A   Clear
11:55 PM 48.2 °F - 44.6 °F 87% 29.87 in 10.0 mi SE 10.4 mph - N/A   Clear